Lid_Strength_Index
3 3 3 3 3 3 3 3 3 3 3 2 2 3 2 2 3 5 8 4 3 1 1 4 2 3 3 5 4 4 11 13 12 12 11 7 8 6 5 7 7 7 9 7 3
4 4 4 4 4 4 3 3 3 3 3 3 3 3 3 3 6 8 3 1 2 2 5 6 7 5 6 6 6 8 11 11 9 8 9 7 7 7 7 7 8 9 8 6 4
3 3 3 4 4 4 4 4 4 3 3 3 3 3 3 4 10 7 2 1 3 3 5 6 6 7 9 7 7 8 11 8 7 7 7 8 8 7 8 8 6 8 8 6 6
4 4 4 4 4 4 4 4 4 3 3 3 4 4 4 7 15 7 3 3 3 6 7 8 9 10 10 11 8 10 7 8 7 6 7 8 7 8 8 8 6 5 7 6 6
4 4 4 4 4 4 3 4 4 3 3 4 4 4 6 11 11 6 3 4 5 6 7 8 10 11 12 11 11 11 10 8 7 7 7 7 8 9 9 7 5 5 5 6 6
4 4 5 4 4 4 4 4 4 3 4 4 4 4 9 14 6 5 6 4 5 6 7 7 9 8 10 11 11 10 10 10 9 8 7 8 8 8 9 7 7 6 6 6 6
4 5 4 4 4 4 4 4 4 4 4 4 5 7 11 11 6 5 5 5 6 6 8 7 6 8 8 11 9 10 12 11 11 11 10 8 10 10 8 7 7 7 6 6 6
5 5 4 5 5 4 4 4 4 4 5 5 5 8 12 6 6 6 5 6 5 5 6 5 4 6 8 8 10 12 12 16 12 10 10 10 14 9 6 7 8 7 7 7 6
5 5 5 5 5 5 4 5 5 5 5 5 8 9 13 5 8 6 6 7 5 4 3 3 3 6 7 10 13 12 16 15 14 10 11 11 13 10 7 7 8 8 7 7 6
5 5 5 5 5 5 5 5 6 6 8 8 8 11 9 11 8 7 5 4 4 4 5 5 6 9 9 11 17 15 14 13 14 11 11 13 12 10 9 7 8 7 7 7 7
5 5 5 5 5 5 6 8 12 12 11 13 12 11 10 8 6 7 4 4 4 6 10 8 11 13 11 10 10 11 12 13 12 10 11 12 12 10 9 8 8 7 8 7 7
5 5 5 5 5 4 7 11 11 10 14 10 10 10 8 7 10 6 2 6 7 10 8 10 13 9 8 9 10 11 13 13 11 9 11 12 12 10 10 10 9 9 7 7 6
5 5 5 5 4 6 9 9 7 7 14 12 10 10 9 8 10 7 4 6 8 10 10 12 11 8 10 11 12 12 13 13 13 11 10 11 14 12 10 10 10 9 7 7 6
5 5 5 5 7 8 10 7 6 6 17 15 13 10 9 8 9 4 3 5 8 11 10 11 8 10 11 12 11 15 10 11 12 13 17 11 19 13 11 12 11 10 9 8 7
5 5 5 5 8 9 8 5 5 8 24 14 13 7 8 9 8 6 3 6 10 10 9 12 11 11 12 11 10 13 10 11 12 14 15 15 17 16 12 13 12 10 9 8 7
5 5 5 6 7 7 5 5 7 17 25 17 12 13 12 9 7 6 6 5 5 9 9 10 7 9 10 9 9 9 12 12 13 14 20 17 17 18 15 13 12 10 9 7 6
5 5 5 6 9 5 5 8 17 22 15 18 16 13 13 11 9 9 10 11 13 15 15 12 11 9 8 13 11 12 14 19 21 21 23 15 16 16 12 11 10 10 9 7 5
5 5 5 6 5 5 7 12 23 19 18 14 14 14 14 11 10 11 12 13 10 13 14 17 19 12 9 12 13 14 14 19 23 23 19 14 19 16 11 10 8 8 8 7 7
5 6 6 6 5 6 10 18 20 17 15 16 15 16 15 11 12 12 13 13 11 11 16 16 17 11 10 10 10 14 16 12 17 17 19 18 15 11 12 13 11 10 9 10 9
8 8 8 6 5 7 13 17 17 13 13 14 19 16 19 16 15 14 14 11 13 9 9 14 19 12 11 10 10 12 11 19 18 22 27 21 18 20 18 17 14 12 11 12 12
8 11 8 6 6 10 17 17 15 12 12 16 17 17 15 16 15 15 14 11 10 11 10 12 15 16 13 18 16 15 17 15 16 19 22 22 21 16 17 16 17 14 13 13 13
9 14 7 6 13 13 16 14 12 13 11 13 13 14 16 14 16 15 14 12 9 10 14 12 15 19 17 13 11 13 15 16 21 22 18 18 22 15 16 16 16 14 14 13 13
12 12 7 8 16 15 13 14 13 14 13 15 15 12 13 17 16 14 13 10 9 10 12 13 16 20 20 16 13 16 14 16 17 17 21 20 21 15 15 16 16 16 14 14 14
11 14 10 10 10 14 15 15 15 12 13 12 13 11 14 18 12 15 13 11 9 10 8 9 17 17 20 19 16 17 16 17 18 20 20 20 21 18 17 17 17 16 16 15 14
11 13 11 15 13 13 13 14 15 15 12 11 16 14 14 16 16 16 13 12 11 9 10 11 18 17 17 16 16 16 17 18 20 20 21 21 21 19 17 17 17 16 16 17 17
10 12 12 13 12 13 13 14 14 13 13 14 16 14 13 14 14 16 13 13 13 12 11 13 16 17 19 18 15 15 16 17 18 19 20 19 20 17 15 16 17 17 17 18 18
7 7 9 11 13 14 14 13 13 11 11 11 12 13 15 12 10 10 10 11 11 13 14 14 14 19 23 18 16 18 19 18 18 18 19 21 19 17 18 18 18 18 17 18 18